Date_and_time,latitude,longitude,wind_speed,RelWindDirFrom,WindDirFrom,air_pressure,air_temperature,relative_humidity,Temp,platform_speed_wrt_ground,air_pressure_at_mean_sea_level,platform_orientation
2018-05-16 00:00,50.6304383333333,-96.9807533333333,9.3,12.6,236,977.68,26.3,22,9.97,0.0,1002.70,90.0
2018-05-16 00:10,50.6304316666667,-96.9807433333333,7.8,11.6,239,978.00,25.8,23,10.00,0.0,1003.06,90.0
2018-05-16 00:20,50.6304433333333,-96.9807733333333,5.2,9.4,308,978.36,25.7,24,10.05,0.0,1003.43,90.0
2018-05-16 00:30,50.6304383333333,-96.9807683333333,8.4,18.4,305,978.25,25.7,23,10.02,0.0,1003.33,90.0
2018-05-16 00:40,50.63044,-96.98077,6.2,12.1,262,978.32,25.5,23,10.00,0.0,1003.49,90.0
2018-05-16 00:50,50.6304383333333,-96.98077,4.4,7.2,206,977.73,25.2,23,10.00,0.0,1002.94,90.0
2018-05-16 01:00,50.6304366666667,-96.9807666666667,7.7,11.1,218,978.06,24.8,25,10.02,0.0,1003.25,270.0
2018-05-16 01:10,50.630435,-96.9807683333333,8.5,12.9,255,978.81,24.3,29,10.00,0.0,1004.00,270.0
2018-05-16 01:20,50.630435,-96.9807666666667,2.4,11.7,263,978.60,23.9,30,9.98,0.0,1003.81,270.0
2018-05-16 01:30,50.63044,-96.980775,4.8,9.6,250,978.30,24.1,29,9.97,0.0,1003.50,270.0
2018-05-16 01:40,50.6304383333333,-96.9807716666667,4.9,8.2,222,977.90,23.5,32,9.98,0.0,1003.14,270.0
2018-05-16 01:50,50.6304333333333,-96.9807683333333,6.5,8.9,216,977.66,23.0,32,10.01,0.0,1002.92,270.0
2018-05-16 02:00,50.6304266666667,-96.9807533333333,6.8,26.7,338,977.96,22.3,34,10.01,0.0,1003.29,360.0
2018-05-16 02:10,50.6304333333333,-96.9807533333333,11.9,26.4,355,978.51,18.1,38,10.01,0.0,1004.03,360.0
2018-05-16 02:20,50.630435,-96.980755,12.8,17.1,359,978.50,16.4,42,10.02,0.0,1004.10,360.0
2018-05-16 02:30,50.630435,-96.9807566666667,9.2,12.3,359,978.56,16.4,42,10.05,0.0,1004.17,360.0
2018-05-16 02:40,50.6304133333333,-96.9807966666667,8.9,11.0,355,978.61,16.0,43,10.05,0.0,1004.25,360.0
2018-05-16 02:50,50.6304216666667,-96.9807683333333,10.2,14.9,350,978.79,17.4,38,10.05,0.0,1004.40,360.0
2018-05-16 03:00,50.630425,-96.98077,11.3,13.6,357,978.87,17.6,39,10.02,0.0,1004.49,212.5
2018-05-16 03:10,50.630425,-96.9807783333333,8.8,11.0,349,978.92,17.8,37,9.91,0.0,1004.55,212.5
2018-05-16 03:20,50.6304266666667,-96.9807683333333,8.8,11.6,345,979.33,18.0,36,9.79,0.0,1004.95,212.5
2018-05-16 03:30,50.6304266666667,-96.9807683333333,9.5,15.8,343,979.54,18.1,36,9.68,0.0,1005.19,212.5
2018-05-16 03:40,50.6304283333333,-96.980765,12.4,16.3,349,979.56,17.8,37,9.68,0.0,1005.24,212.5
2018-05-16 03:50,50.63043,-96.9807666666667,12.8,16.4,349,979.64,17.4,38,9.71,0.0,1005.38,212.5
2018-05-16 04:00,50.63043,-96.9807666666667,10.9,14.5,348,979.67,17.1,38,9.73,0.0,1005.61,360.0
2018-05-16 04:10,50.6304316666667,-96.9807666666667,10.5,15.2,348,979.83,16.8,40,9.70,0.0,1005.86,360.0
2018-05-16 04:20,50.6304316666667,-96.9807666666667,9.0,13.4,344,979.93,16.1,42,9.71,0.0,1006.00,360.0
2018-05-16 04:30,50.6304633333333,-96.9807583333333,11.3,16.9,352,979.95,15.3,45,9.70,0.0,1006.07,360.0
2018-05-16 04:40,50.6304533333333,-96.9807383333333,12.9,16.6,351,980.12,14.8,45,9.65,0.0,1006.21,360.0
2018-05-16 04:50,50.6304466666667,-96.980755,14.9,20.8,351,980.10,14.5,44,9.66,0.0,1006.19,360.0
2018-05-16 05:00,50.630435,-96.98076,15.1,19.0,352,980.08,14.1,44,9.67,0.0,1006.19,345.5
2018-05-16 05:10,50.6304333333333,-96.9807616666667,12.5,16.8,349,980.18,13.8,44,9.56,0.0,1006.29,345.5
2018-05-16 05:20,50.63043,-96.98076,10.3,14.5,346,980.38,13.8,44,9.51,0.0,1006.49,345.5
2018-05-16 05:30,50.6304283333333,-96.9807583333333,7.9,12.3,339,980.58,13.9,43,9.49,0.0,1006.70,345.5
2018-05-16 05:40,50.6304283333333,-96.98076,7.2,10.7,337,980.77,13.9,43,9.51,0.0,1006.91,345.5
2018-05-16 05:50,50.6304283333333,-96.98076,9.0,11.7,343,981.08,13.7,45,9.52,0.0,1007.26,345.5
2018-05-16 06:00,50.6304283333333,-96.9807566666667,9.0,13.1,342,981.35,13.4,45,9.58,0.0,1007.57,90.0
2018-05-16 06:10,50.630435,-96.9807566666667,11.6,16.4,349,981.35,12.9,48,9.63,0.0,1007.61,90.0
2018-05-16 06:20,50.63044,-96.9807616666667,11.5,14.8,354,981.31,12.4,52,9.63,0.0,1007.63,90.0
2018-05-16 06:30,50.630425,-96.9807633333333,10.3,14.3,353,981.56,12.1,54,9.61,0.0,1007.93,90.0
2018-05-16 06:40,50.6304416666667,-96.9807666666667,11.9,16.7,356,981.67,12.0,57,9.55,0.0,1008.07,90.0
2018-05-16 06:50,50.63044,-96.9807633333333,14.8,17.7,357,981.65,11.8,59,9.47,0.0,1008.07,90.0
2018-05-16 07:00,50.63044,-96.9807633333333,14.1,17.9,2,981.74,11.6,61,9.47,0.0,1008.19,360.0
2018-05-16 07:10,50.63044,-96.9807616666667,15.8,20.9,357,981.90,11.4,62,9.46,0.0,1008.36,360.0
2018-05-16 07:20,50.63044,-96.9807616666667,16.2,20.6,359,982.01,11.3,62,9.47,0.0,1008.47,360.0
2018-05-16 07:30,50.6304383333333,-96.9807616666667,16.5,19.9,1,982.14,11.1,64,9.47,0.0,1008.62,360.0
2018-05-16 07:40,50.6304383333333,-96.9807633333333,16.1,20.1,0,982.23,10.8,66,9.48,0.0,1008.74,360.0
2018-05-16 07:50,50.6304383333333,-96.9807616666667,15.9,20.4,359,982.39,10.6,67,9.47,0.0,1008.91,360.0
2018-05-16 08:00,50.63045,-96.9807683333333,17.0,20.6,359,982.51,10.5,67,9.42,0.0,1009.06,360.0
2018-05-16 08:10,50.6304416666667,-96.9807683333333,16.5,19.9,358,982.65,10.4,67,9.42,0.0,1009.24,360.0
2018-05-16 08:20,50.6304383333333,-96.980765,16.0,19.9,1,982.83,10.2,69,9.43,0.0,1009.45,360.0
2018-05-16 08:30,50.6304383333333,-96.9807633333333,12.3,18.1,354,983.20,10.2,68,9.41,0.0,1009.84,360.0
2018-05-16 08:40,50.6304366666667,-96.9807616666667,11.4,15.5,351,983.41,9.9,69,9.40,0.0,1010.07,360.0
2018-05-16 08:50,50.6304366666667,-96.9807616666667,10.8,15.0,345,983.65,9.6,71,9.42,0.0,1010.35,360.0
2018-05-16 09:00,50.630435,-96.98076,11.8,16.3,347,983.95,9.3,73,9.44,0.0,1010.68,360.0
2018-05-16 09:10,50.630435,-96.98076,11.6,15.8,357,984.27,8.8,78,9.45,0.0,1011.03,360.0
2018-05-16 09:20,50.630435,-96.98076,13.9,19.1,355,984.29,8.3,82,9.44,0.0,1011.09,360.0
2018-05-16 09:30,50.6304466666667,-96.9807533333333,15.6,20.0,358,984.33,8.0,84,9.42,0.0,1011.16,360.0
2018-05-16 09:40,50.63044,-96.980755,14.9,17.6,0,984.51,7.6,88,9.40,0.0,1011.37,360.0
2018-05-16 09:50,50.6304383333333,-96.980755,15.8,20.7,360,984.66,7.3,92,9.36,0.0,1011.55,360.0
2018-05-16 10:00,50.6304416666667,-96.9807566666667,17.4,22.0,3,984.71,6.9,96,9.28,0.0,1011.62,90.0
2018-05-16 10:10,50.6304266666667,-96.9807583333333,19.2,24.6,3,984.71,6.6,97,9.23,0.0,1011.65,90.0
2018-05-16 10:20,50.6304266666667,-96.9807533333333,17.5,22.2,4,984.97,6.2,99,9.23,0.0,1011.93,90.0
2018-05-16 10:30,50.6304316666667,-96.9807533333333,15.9,20.0,4,985.21,6.2,99,9.23,0.0,1012.19,90.0
2018-05-16 10:40,50.6304333333333,-96.9807533333333,14.5,17.8,360,985.51,6.0,99,9.24,0.0,1012.53,90.0
2018-05-16 10:50,50.630435,-96.980755,16.6,20.7,2,985.64,5.5,100,9.26,0.0,1012.70,90.0
2018-05-16 11:00,50.630435,-96.980755,19.8,24.8,0,985.77,4.9,100,9.29,0.0,1012.88,360.0
2018-05-16 11:10,50.6304366666667,-96.9807583333333,18.4,22.5,359,986.11,4.7,100,9.30,0.0,1013.27,360.0
2018-05-16 11:20,50.630435,-96.9807583333333,16.4,22.6,2,986.28,4.8,100,9.30,0.0,1013.46,360.0
2018-05-16 11:30,50.630435,-96.9807566666667,13.4,18.0,352,986.58,4.6,100,9.30,0.0,1013.79,360.0
2018-05-16 11:40,50.6304366666667,-96.9807566666667,14.6,19.2,352,986.67,4.4,100,9.31,0.0,1013.91,360.0
2018-05-16 11:50,50.6304366666667,-96.9807566666667,13.7,20.5,353,986.98,4.3,100,9.31,0.0,1014.25,360.0
2018-05-16 12:00,50.630435,-96.9807566666667,17.0,21.4,0,987.00,4.2,101,9.30,0.0,1014.29,0.0
2018-05-16 12:10,50.630435,-96.9807566666667,15.8,21.1,355,987.22,4.0,101,9.29,0.0,1014.54,0.0
2018-05-16 12:20,50.6304483333333,-96.9807366666667,16.2,19.9,356,987.43,4.0,101,9.29,0.0,1014.76,0.0
2018-05-16 12:30,50.63044,-96.9807566666667,14.9,19.8,3,987.63,4.2,101,9.27,0.0,1014.97,0.0
2018-05-16 12:40,50.630445,-96.9807933333333,13.8,19.2,358,987.83,4.2,101,9.23,0.0,1015.20,0.0
2018-05-16 12:50,50.630445,-96.9807666666667,17.8,22.7,9,987.84,4.3,101,9.21,0.0,1015.24,0.0
2018-05-16 13:00,50.630425,-96.9807683333333,16.8,20.6,5,988.11,4.2,101,9.22,0.0,1015.52,219.5
2018-05-16 13:10,50.63043,-96.98076,15.8,20.9,2,988.40,4.1,101,9.22,0.0,1015.83,219.5
2018-05-16 13:20,50.6304333333333,-96.98076,15.5,21.5,8,988.68,4.3,101,9.22,0.0,1016.11,219.5
2018-05-16 13:30,50.630435,-96.98076,18.2,21.6,13,988.78,4.2,101,9.21,0.0,1016.23,219.5
2018-05-16 13:40,50.6304366666667,-96.9807583333333,17.6,21.5,8,988.92,4.1,101,9.20,0.0,1016.39,219.5
2018-05-16 13:50,50.6304366666667,-96.9807583333333,17.1,21.0,9,989.03,4.2,101,9.21,0.0,1016.50,219.5
2018-05-16 14:00,50.63044,-96.98077,18.0,21.1,11,989.06,4.2,101,9.19,0.0,1016.54,347.4
2018-05-16 14:10,50.63044,-96.9807633333333,17.9,21.2,12,989.17,4.3,101,9.19,0.0,1016.65,347.4
2018-05-16 14:20,50.6304383333333,-96.9807616666667,17.8,21.9,12,989.47,4.3,101,9.18,0.0,1016.95,347.4
2018-05-16 14:30,50.63044,-96.98076,17.3,21.2,12,989.79,4.3,101,9.17,0.0,1017.27,347.4
2018-05-16 14:40,50.6304383333333,-96.980755,18.6,21.3,17,989.86,4.4,101,9.17,0.0,1017.34,347.4
2018-05-16 14:50,50.6304316666667,-96.9807433333333,18.1,22.4,14,990.09,4.5,101,9.16,0.0,1017.57,347.4
2018-05-16 15:00,50.630445,-96.9807516666667,15.2,19.1,11,990.56,4.7,101,9.16,0.0,1018.05,48.3
2018-05-16 15:10,50.6304433333333,-96.9807533333333,16.6,20.0,16,990.67,4.6,101,9.16,0.0,1018.16,48.3
2018-05-16 15:20,50.63044,-96.9807483333333,17.9,21.6,15,990.81,4.6,100,9.17,0.0,1018.31,48.3
2018-05-16 15:30,50.63044,-96.98075,19.0,23.7,14,990.76,4.7,100,9.17,0.0,1018.26,48.3
2018-05-16 15:40,50.6304383333333,-96.9807516666667,19.1,21.8,17,990.83,4.7,100,9.15,0.0,1018.32,48.3
2018-05-16 15:50,50.6304383333333,-96.9807533333333,18.4,21.5,18,990.95,4.8,100,9.14,0.0,1018.45,48.3
2018-05-16 16:00,50.6304383333333,-96.9807516666667,18.8,22.5,16,991.01,4.8,100,9.13,0.0,1018.50,32.5
2018-05-16 16:10,50.6304383333333,-96.9807533333333,17.0,20.3,15,991.16,4.9,100,9.11,0.0,1018.64,32.5
2018-05-16 16:20,50.63044,-96.9807533333333,15.3,18.4,15,991.39,4.9,100,9.12,0.0,1018.88,32.5
2018-05-16 16:30,50.6304383333333,-96.980755,15.1,18.0,15,991.45,4.9,100,9.15,0.0,1018.94,32.5
2018-05-16 16:40,50.6304383333333,-96.980755,15.4,17.4,21,991.57,5.1,100,9.17,0.0,1019.05,32.5
2018-05-16 16:50,50.6304383333333,-96.980755,14.6,18.2,22,991.61,5.0,100,9.17,0.0,1019.09,32.5
2018-05-16 17:00,50.6304383333333,-96.9807566666667,14.7,17.1,15,991.79,5.2,100,9.18,0.0,1019.26,90.0
2018-05-16 17:10,50.6304383333333,-96.980755,15.0,18.2,14,991.91,5.3,100,9.18,0.0,1019.38,90.0
2018-05-16 17:20,50.6304383333333,-96.980755,15.2,17.8,12,991.89,5.5,100,9.19,0.0,1019.34,90.0
2018-05-16 17:30,50.6304383333333,-96.980755,14.6,18.7,10,991.80,5.5,100,9.18,0.0,1019.26,90.0
2018-05-16 17:40,50.6304383333333,-96.9807566666667,13.9,17.4,8,991.91,5.6,99,9.18,0.0,1019.36,90.0
2018-05-16 17:50,50.6304383333333,-96.980755,14.1,16.9,9,991.90,5.8,99,9.18,0.0,1019.34,90.0
2018-05-16 18:00,50.6304383333333,-96.980755,14.5,17.4,11,991.86,6.0,99,9.18,0.0,1019.28,270.0
2018-05-16 18:10,50.6304383333333,-96.9807366666667,14.9,17.1,8,991.90,6.2,97,9.13,0.0,1019.31,270.0
2018-05-16 18:20,50.630435,-96.9807466666667,14.5,17.5,5,991.90,6.6,93,9.15,0.0,1019.29,270.0
2018-05-16 18:30,50.6304333333333,-96.9807766666667,13.7,16.6,4,992.05,7.2,88,9.19,0.0,1019.41,270.0
2018-05-16 18:40,50.6304333333333,-96.9807716666667,14.5,18.0,7,991.94,7.5,85,9.23,0.0,1019.28,270.0
2018-05-16 18:50,50.6304333333333,-96.9807683333333,14.6,17.5,7,991.77,7.7,83,9.23,0.0,1019.09,270.0
2018-05-16 19:00,50.6304333333333,-96.9807633333333,14.3,17.5,8,991.70,7.9,82,9.26,0.0,1019.00,216.6
2018-05-16 19:10,50.6304416666667,-96.9807483333333,13.7,15.9,7,991.87,8.1,80,9.31,0.0,1019.16,216.6
2018-05-16 19:20,50.6304383333333,-96.9807566666667,14.1,17.3,9,991.80,8.4,78,9.37,0.0,1019.07,216.6
2018-05-16 19:30,50.6304333333333,-96.9807516666667,13.5,16.6,10,991.86,8.5,79,9.41,0.0,1019.13,216.6
2018-05-16 19:40,50.6304333333333,-96.9807516666667,13.6,16.1,8,991.86,8.6,77,9.46,0.0,1019.10,216.6
2018-05-16 19:50,50.6304316666667,-96.9807516666667,13.4,16.6,6,992.04,9.2,72,9.48,0.0,1019.25,216.6
2018-05-16 20:00,50.6304316666667,-96.9807533333333,14.9,17.6,7,992.13,9.5,69,9.51,0.0,1019.32,165.5
2018-05-16 20:10,50.6304316666667,-96.980755,14.1,17.0,9,992.16,9.8,66,9.48,0.0,1019.32,165.5
2018-05-16 20:20,50.6304316666667,-96.980755,14.1,17.4,9,992.19,9.7,68,9.53,0.0,1019.33,165.5
2018-05-16 20:30,50.6304316666667,-96.9807566666667,14.8,17.5,7,992.25,9.6,70,9.54,0.0,1019.38,165.5
2018-05-16 20:40,50.6304316666667,-96.9807566666667,14.7,18.2,6,992.35,9.8,68,9.53,0.0,1019.46,165.5
2018-05-16 20:50,50.6304383333333,-96.9807583333333,15.2,18.0,5,992.37,10.1,66,9.54,0.0,1019.45,165.5
2018-05-16 21:00,50.630435,-96.9807566666667,14.9,17.7,7,992.39,10.2,65,9.55,0.0,1019.46,360.0
2018-05-16 21:10,50.6304333333333,-96.9807583333333,14.5,16.7,8,992.37,10.2,64,9.56,0.0,1019.43,360.0
2018-05-16 21:20,50.6304466666667,-96.9807333333333,14.1,16.0,9,992.41,10.1,64,9.59,0.0,1019.47,360.0
2018-05-16 21:30,50.630445,-96.9807583333333,13.9,16.6,5,992.45,10.4,62,9.54,0.0,1019.49,360.0
2018-05-16 21:40,50.6304383333333,-96.980755,14.9,17.4,7,992.34,10.6,60,9.56,0.0,1019.34,360.0
2018-05-16 21:50,50.63044,-96.9807566666667,15.0,17.6,7,992.40,10.6,61,9.60,0.0,1019.39,360.0
2018-05-16 22:00,50.6304316666667,-96.9807416666667,15.1,17.4,7,992.32,10.5,60,9.68,0.0,1019.30,90.0
2018-05-16 22:10,50.630435,-96.9807466666667,13.5,16.9,4,992.37,10.8,57,9.72,0.0,1019.33,90.0
2018-05-16 22:20,50.630435,-96.98075,13.1,15.0,8,992.32,10.7,58,9.71,0.0,1019.30,90.0
2018-05-16 22:30,50.6304333333333,-96.98075,13.3,15.7,7,992.39,10.6,59,9.69,0.0,1019.36,90.0
2018-05-16 22:40,50.630435,-96.9807516666667,15.0,18.7,6,992.47,10.5,58,9.69,0.0,1019.43,90.0
2018-05-16 22:50,50.630435,-96.9807533333333,16.0,18.9,6,992.54,10.6,58,9.69,0.0,1019.50,90.0
2018-05-16 23:00,50.6304366666667,-96.9807533333333,16.1,19.2,10,992.41,10.1,62,9.68,0.0,1019.38,38.0
2018-05-16 23:10,50.6304483333333,-96.98081,14.0,16.6,9,992.50,9.9,65,9.71,0.0,1019.50,38.0
2018-05-16 23:20,50.630435,-96.9807666666667,12.6,16.5,9,992.43,9.8,65,9.72,0.0,1019.41,38.0
2018-05-16 23:30,50.6304366666667,-96.9807633333333,11.4,14.0,9,992.49,9.7,65,9.73,0.0,1019.46,38.0
2018-05-16 23:40,50.6304383333333,-96.98076,11.8,14.4,8,992.35,9.9,64,9.70,0.0,1019.32,38.0
